Dewpoint
58 58 58 59 59 59 59 59 59 58 57 56 56 55 55 55 54 46 40 36 38 43 42 37 34 31 27 25 21 17 12 12 12 10 13 17 17 21 21 25 47 52 56 59 63
58 57 58 58 58 58 59 59 59 59 58 56 56 54 54 54 51 45 43 44 43 43 37 35 33 32 28 24 21 15 13 13 14 13 14 14 16 16 18 20 46 59 61 62 61
58 57 57 57 58 58 58 58 59 59 58 57 55 54 54 54 46 33 40 42 42 42 39 37 34 31 28 26 22 16 11 13 13 18 17 13 14 16 15 16 21 56 60 60 60
57 57 57 57 57 58 58 58 58 59 58 56 55 54 54 52 21 36 41 41 42 41 38 35 32 30 28 26 25 20 18 17 17 18 18 15 14 15 16 16 19 46 60 60 59
57 57 57 57 57 57 57 57 58 58 58 56 54 53 53 48 44 43 43 44 40 38 36 34 34 32 30 32 29 27 23 21 20 18 17 18 14 15 15 16 16 19 58 58 58
57 56 56 56 56 56 56 57 58 58 58 56 52 52 52 45 48 45 43 44 41 40 37 37 38 40 37 31 28 29 30 28 26 23 22 21 20 17 15 16 16 15 54 57 57
57 56 56 56 56 56 56 57 58 58 58 54 51 52 51 49 50 50 49 47 46 43 43 43 43 42 41 36 32 32 30 30 29 26 23 22 19 17 17 15 14 14 41 55 56
56 56 55 55 55 55 56 57 58 58 56 52 50 50 48 52 52 51 50 48 48 46 45 45 44 43 41 38 33 31 31 26 26 25 24 21 18 18 18 15 14 13 13 51 54
56 55 55 54 55 55 57 57 57 56 52 50 49 49 45 48 50 51 50 48 46 45 44 44 43 41 40 35 32 31 27 26 26 28 26 21 18 17 17 17 15 16 14 29 51
56 55 55 54 55 56 57 55 53 52 50 49 48 45 45 39 44 45 46 47 43 43 42 42 39 36 36 35 29 28 28 27 27 27 28 26 25 20 18 18 19 19 18 22 40
56 56 55 55 56 54 52 51 49 47 47 45 44 43 39 44 40 40 38 38 41 37 32 34 33 32 33 33 33 31 30 28 29 28 27 26 25 25 25 25 24 24 22 25 26
56 56 56 56 55 54 52 51 48 45 43 47 46 45 44 43 42 39 39 36 35 30 30 31 30 32 32 32 31 31 29 28 28 28 28 28 27 27 27 27 26 25 24 23 25
57 56 56 55 54 53 52 52 47 48 45 43 45 44 44 43 42 40 38 34 32 33 33 31 32 33 32 31 30 29 28 27 28 32 29 27 26 26 27 27 28 30 29 28 26
57 57 56 54 51 52 51 51 51 51 40 38 40 41 42 43 40 42 42 39 33 31 31 31 31 30 29 29 28 27 29 30 30 30 28 28 24 26 27 27 30 33 35 36 36
56 56 53 54 50 50 51 51 52 49 28 36 38 40 40 41 38 39 41 39 36 34 32 31 31 30 29 29 29 28 29 28 29 28 27 26 24 25 26 25 31 34 36 37 37
56 54 53 54 51 52 52 52 49 35 26 35 34 33 35 39 36 33 35 37 37 36 34 33 34 32 30 28 27 25 25 25 26 28 25 25 24 25 24 26 31 34 35 36 36
55 53 54 53 50 52 52 48 34 29 34 32 31 32 34 37 37 31 31 33 33 32 32 33 32 33 33 32 27 24 23 23 23 24 23 26 25 25 30 31 31 30 32 34 37
53 53 55 53 54 52 50 40 29 32 31 33 29 31 32 34 35 35 30 31 33 32 27 29 27 31 32 32 28 27 24 24 21 22 25 27 25 30 32 32 31 28 23 26 33
53 52 51 53 53 52 45 34 33 31 31 26 28 28 29 30 30 31 30 29 31 31 28 25 24 29 29 32 32 29 25 26 27 31 28 27 28 32 33 34 34 32 20 19 28
50 47 46 46 53 49 41 34 36 33 29 29 26 25 26 27 26 28 28 28 28 29 30 27 24 26 24 25 25 26 31 28 32 25 25 26 24 25 30 29 29 28 28 21 29
46 42 42 45 50 43 35 34 35 32 29 24 29 28 24 25 25 24 25 26 28 28 28 28 27 24 25 23 22 22 26 27 29 29 24 20 20 30 26 25 23 24 23 17 28
41 35 41 44 40 36 33 36 35 30 24 23 23 30 22 20 22 23 22 25 28 28 25 27 27 25 24 25 26 27 26 26 24 24 27 25 23 29 26 23 18 16 16 16 28
33 34 41 43 32 31 36 36 35 33 26 24 22 23 21 18 17 23 29 33 28 28 27 26 24 22 21 24 25 23 24 25 27 28 28 26 24 26 26 20 16 16 16 15 19
35 30 33 35 34 34 32 34 35 36 32 26 22 22 19 19 20 24 31 31 30 28 26 26 23 21 19 18 19 17 17 18 21 23 24 23 23 24 24 20 18 18 18 17 17
37 32 35 29 31 34 34 35 32 32 33 28 23 24 24 20 21 28 29 28 29 28 26 25 21 22 24 26 24 22 20 19 16 16 18 18 18 19 19 17 17 17 17 17 16
34 34 37 34 33 33 35 33 32 31 31 29 27 27 27 23 26 24 30 31 27 27 25 27 26 26 22 24 24 20 19 19 17 15 13 12 11 14 15 15 16 17 18 19 20
34 33 32 35 33 31 31 32 33 35 35 33 30 29 28 23 22 22 29 32 31 29 28 27 26 25 21 21 22 20 22 19 18 17 17 15 16 17 16 17 17 19 19 26 29
Wind_Speed
14 13 12 11 9 9 8 9 9 9 12 16 19 22 25 26 29 8 9 2 5 13 8 18 15 16 11 7 10 4 4 10 8 4 14 15 15 12 12 6 8 5 6 14 26
18 16 14 14 12 11 9 8 8 10 10 13 17 22 26 27 13 13 1 2 5 12 10 13 17 19 10 7 7 8 7 10 11 13 14 18 14 18 11 13 6 16 18 29 26
20 19 18 16 15 13 11 9 8 8 9 12 16 20 26 22 9 1 6 1 6 10 7 12 15 14 9 13 7 6 20 17 24 12 15 20 17 11 16 11 12 16 26 28 29
22 21 19 18 16 14 12 10 8 7 7 10 14 19 27 4 7 3 6 5 6 8 8 13 11 10 9 13 17 9 18 14 10 17 17 20 17 16 16 15 14 10 29 29 28
22 22 20 18 17 16 14 12 9 7 6 8 12 16 8 4 12 5 6 7 5 7 9 12 12 11 12 15 17 15 13 17 22 23 22 22 22 18 18 22 20 16 25 25 22
23 22 20 18 17 15 14 12 9 7 6 6 9 13 2 11 9 16 8 5 7 12 10 11 7 13 11 10 12 14 21 22 20 22 19 22 21 16 16 15 22 23 22 26 27
24 23 21 19 16 16 13 10 9 7 4 2 6 5 7 20 7 18 22 13 13 11 10 12 12 12 15 13 10 17 22 25 24 17 21 20 26 26 24 22 23 22 15 24 26
26 25 23 21 19 17 13 10 8 6 6 2 3 1 10 15 18 22 20 20 20 16 17 11 13 13 5 8 10 11 11 13 3 16 17 14 30 17 19 21 26 27 26 25 26
26 25 24 23 21 17 14 10 8 7 3 3 2 2 13 12 7 19 19 16 14 14 14 14 10 10 7 7 9 8 13 15 17 13 18 14 22 14 11 17 17 11 24 18 28
28 27 24 23 20 15 11 11 9 5 3 5 8 5 10 11 12 7 13 19 11 13 14 11 5 9 5 11 13 8 12 15 19 17 24 18 20 14 15 18 9 13 14 19 25
28 27 25 23 19 25 20 11 3 4 6 13 13 8 9 9 3 6 8 7 9 9 10 14 10 14 21 20 19 18 22 25 24 18 21 20 22 21 18 12 16 19 14 16 22
28 27 25 24 27 27 16 8 6 3 9 29 33 28 24 18 12 12 17 11 9 13 14 8 17 22 22 21 21 20 22 22 13 17 21 25 30 21 21 22 20 24 26 20 20
28 26 26 28 29 16 16 10 6 6 6 9 21 19 26 20 26 21 14 17 11 17 18 20 13 22 21 20 18 18 16 14 16 20 15 19 23 15 16 22 17 23 14 11 18
30 29 28 30 22 12 9 9 12 6 5 8 14 17 27 17 20 31 22 14 13 14 15 14 16 22 19 19 12 16 12 15 17 17 16 14 21 9 17 13 24 25 26 25 29
33 31 38 38 15 16 11 15 15 5 6 6 9 6 13 21 2 20 23 24 24 20 11 9 7 14 16 13 8 11 6 9 10 8 16 8 11 2 13 7 19 21 22 22 24
35 38 41 18 10 12 23 20 9 8 12 5 7 6 9 30 10 2 6 3 11 19 17 18 15 11 7 4 3 7 6 9 11 8 14 17 16 12 6 14 19 20 21 22 24
35 41 36 19 19 27 24 16 8 11 6 9 7 12 17 18 22 10 10 11 13 11 20 21 26 25 15 16 8 7 4 3 4 7 15 3 10 14 16 20 22 21 19 17 19
38 39 21 14 29 33 16 7 10 14 18 11 14 18 18 14 19 22 16 14 21 13 3 14 6 24 21 31 14 16 13 9 6 8 6 9 6 6 16 20 19 18 17 17 20
35 22 13 12 33 30 19 21 19 10 18 11 19 21 20 22 12 21 22 16 12 23 9 8 8 5 5 15 23 13 16 16 8 6 9 6 3 4 8 11 8 7 12 11 13
23 10 7 9 28 28 28 19 10 14 14 19 18 15 21 24 22 23 18 14 22 10 23 2 2 1 5 6 3 1 10 7 6 7 9 7 12 8 10 9 10 13 16 13 8
12 12 2 6 11 14 21 14 11 15 15 8 25 12 17 19 24 16 10 11 21 8 3 4 3 1 10 4 7 4 10 5 7 7 6 7 3 12 13 12 6 4 2 9 6
8 9 6 2 23 6 10 13 9 17 5 5 3 29 18 20 17 22 20 6 8 13 7 2 3 9 8 9 9 4 1 11 12 7 8 5 8 19 15 4 2 7 5 6 8
8 5 5 2 18 10 0 8 3 7 11 5 5 3 1 3 8 23 7 1 9 6 7 4 4 5 3 4 3 2 2 6 8 5 16 7 11 9 21 8 12 7 4 7 4
7 7 6 5 2 8 10 3 6 4 9 4 3 5 2 2 3 5 8 5 4 5 6 3 3 4 11 6 2 2 10 9 3 4 5 11 16 29 15 18 15 9 5 9 10
3 4 6 6 3 5 10 4 7 7 8 5 4 3 1 2 1 12 18 10 9 4 3 4 5 1 1 7 8 8 15 13 12 13 13 19 15 33 22 15 17 18 17 15 16
5 5 6 6 13 9 8 11 17 11 4 4 1 5 5 2 5 5 13 7 8 7 5 3 4 3 3 3 5 17 24 15 17 18 21 21 29 19 23 24 26 22 19 19 8
3 8 10 11 9 6 5 7 10 8 4 3 11 2 4 9 17 15 14 8 5 8 5 8 7 5 3 4 7 16 19 22 19 21 19 22 24 22 22 24 23 23 21 6 16
Wind_Direction
219 226 233 237 241 252 271 293 309 322 332 335 338 335 333 332 327 321 297 316 353 330 338 335 344 348 324 280 247 271 264 264 260 13 328 355 360 350 332 355 44 60 130 145 162
211 214 222 228 229 239 253 272 293 310 326 334 336 336 332 334 321 298 237 345 348 358 10 341 323 320 319 287 290 202 220 258 260 323 335 333 352 330 336 323 78 84 103 134 138
209 211 211 218 229 233 239 256 274 295 321 330 334 336 330 332 319 184 192 254 350 353 323 302 285 298 295 291 274 260 243 258 276 317 336 320 318 311 306 308 296 169 151 157 153
208 211 212 214 223 229 235 240 253 280 310 324 333 337 325 329 307 169 200 260 317 319 321 302 306 336 306 297 294 292 291 291 293 306 306 295 292 294 294 285 310 174 169 165 167
210 210 212 215 214 225 230 235 240 258 287 313 333 339 352 323 252 315 220 255 318 291 278 298 308 300 286 321 328 302 306 295 291 285 276 277 277 265 276 291 304 315 165 176 174
210 211 213 214 218 223 231 239 241 243 270 309 341 335 298 271 257 278 237 306 310 298 299 295 325 332 303 295 297 301 313 309 300 293 295 300 291 295 270 273 281 285 174 175 176
210 210 211 214 216 221 227 232 242 249 260 301 336 327 261 248 258 297 300 293 281 279 301 306 331 339 326 316 319 324 313 307 287 292 279 269 272 259 261 258 257 262 200 183 185
205 206 206 209 213 213 215 217 226 231 203 225 322 292 261 259 254 263 262 266 262 242 256 283 283 283 272 298 319 313 299 280 116 269 262 231 262 267 250 243 243 246 248 189 187
200 203 203 207 207 205 204 203 193 168 189 217 276 199 268 289 224 247 235 243 266 265 247 241 237 252 280 279 302 245 268 272 294 279 274 243 271 227 238 268 271 247 240 208 187
197 197 199 202 199 189 160 133 118 118 231 222 259 301 261 259 227 199 210 219 215 230 234 211 207 232 216 212 244 245 251 285 296 307 317 322 319 295 258 264 285 297 273 215 183
194 192 193 193 167 135 117 112 144 243 211 210 190 220 266 233 120 208 185 211 214 182 188 194 201 219 230 226 231 254 266 274 282 299 325 316 305 307 314 326 324 307 286 214 200
191 189 184 168 158 160 156 199 185 115 254 228 239 234 256 277 290 242 191 196 188 208 206 222 226 229 235 243 252 255 266 277 295 331 318 314 303 303 307 307 302 289 275 245 228
188 182 173 163 158 162 187 185 71 99 281 263 222 237 234 236 246 247 181 203 223 207 219 221 227 227 229 246 252 268 275 283 307 323 320 328 306 318 330 322 354 8 319 310 242
188 183 166 150 158 156 190 159 102 78 259 266 214 251 220 224 248 232 243 235 221 236 248 255 241 251 270 249 276 275 288 313 319 295 312 341 297 316 300 299 60 46 44 42 35
184 168 152 163 138 177 178 142 115 86 250 233 206 274 187 185 173 208 209 225 235 218 208 222 244 248 257 263 270 279 338 321 306 339 317 287 276 253 299 330 73 54 51 41 41
179 164 162 160 146 139 140 127 111 138 237 250 134 162 213 190 218 57 179 166 226 243 252 254 261 273 257 281 123 53 11 321 300 278 274 254 226 296 303 125 84 71 57 50 43
177 168 169 158 178 140 149 140 150 183 205 203 158 177 190 189 207 171 197 191 179 187 232 248 248 250 253 261 179 148 135 257 248 200 247 285 250 230 92 83 83 71 56 52 54
168 167 180 160 143 144 165 146 210 193 185 193 163 165 190 182 211 228 197 198 226 242 283 206 230 215 220 227 206 189 182 184 206 209 269 333 264 129 97 94 88 72 53 45 70
160 167 168 162 153 156 168 214 192 185 204 179 162 169 196 209 186 202 219 219 201 218 214 222 236 107 111 214 208 209 205 220 286 319 284 227 46 194 118 88 68 51 51 40 70
159 146 136 340 157 164 191 217 214 214 183 208 184 190 186 208 209 187 185 217 234 195 214 291 278 167 74 57 35 96 176 223 134 219 231 242 211 201 89 76 69 29 3 347 117
140 131 334 347 135 187 208 189 212 225 220 221 194 208 211 202 213 200 197 212 199 155 98 129 146 212 127 153 186 166 175 193 191 194 213 263 252 149 105 84 8 115 13 4 116
120 147 325 351 175 149 191 177 214 230 107 204 253 207 201 224 208 203 219 229 120 144 170 203 166 235 229 109 69 49 259 191 212 231 219 214 230 175 123 125 39 22 320 15 150
100 104 347 312 188 141 295 172 160 233 197 182 211 222 88 230 197 213 164 53 69 82 142 147 184 168 269 114 47 315 307 16 26 345 254 270 257 308 322 4 334 310 25 350 313
115 107 35 62 250 118 126 246 198 204 251 215 257 241 287 267 58 121 113 129 82 107 112 91 106 159 189 83 51 274 314 306 212 247 301 281 304 298 312 320 319 333 339 318 294
90 144 121 145 99 147 167 135 218 230 295 320 235 184 218 191 345 124 116 120 119 149 66 104 173 72 33 32 4 308 281 281 281 277 257 275 268 279 298 299 309 308 302 299 295
124 118 110 101 123 121 149 180 202 201 167 284 163 208 236 75 15 107 147 161 165 182 138 93 149 107 324 47 298 283 277 287 271 265 271 281 280 282 298 302 294 291 287 293 310
358 113 110 135 135 159 179 143 168 143 287 195 292 239 124 57 77 68 85 98 65 140 143 162 143 124 244 198 254 270 251 254 271 272 266 267 268 281 275 273 281 283 272 114 104